Location: Sceptre
(50.8619°N, 109.2670°W)
Time: 14:35:57
(UTC+00:00)

Envisat - Visible Passes

Search period start: 24 January 2022 00:00
Search period end: 03 February 2022 00:00
Orbit: 764 x 766 km, 98.2° (Epoch: 23 January)

Date Brightness Start Highest point End Pass type
(mag) Time Alt. Az. Time Alt. Az. Time Alt. Az.
24 Jan 6.0 10:38:05 10° ENE 10:39:40 11° E 10:41:15 10° ESE visible
24 Jan 3.1 12:14:30 10° NNE 12:19:37 72° ESE 12:24:41 10° S visible
24 Jan 4.2 13:54:23 10° N 13:58:08 21° WNW 14:01:52 10° WSW visible
25 Jan 4.4 11:37:51 10° NNE 11:42:34 36° E 11:47:14 10° SSE visible
25 Jan 3.5 13:16:56 10° N 13:21:36 38° WNW 13:26:15 10° SW visible
26 Jan 5.9 00:38:28 10° SW 00:41:49 17° W 00:45:10 10° NW visible
26 Jan 5.4 11:01:46 10° NE 11:05:20 19° E 11:08:52 10° SE visible
26 Jan 2.8 12:39:48 10° N 12:44:54 72° WNW 12:49:57 10° SSW visible
26 Jan 4.6 14:20:26 10° NNW 14:23:04 14° NW 14:25:40 10° W visible
27 Jan 3.5 12:02:56 10° NNE 12:07:59 59° E 12:12:59 10° S visible
27 Jan 4.0 13:42:34 10° N 13:46:40 25° WNW 13:50:44 10° WSW visible
28 Jan 6.4 01:06:40 10° W 01:07:30 10° W 01:08:19 10° WNW visible
28 Jan 4.7 11:26:26 10° NNE 11:30:53 30° E 11:35:18 10° SSE visible
28 Jan 3.2 13:05:14 10° N 13:10:05 45° WNW 13:14:54 10° SW visible
29 Jan 5.7 10:50:39 10° NE 10:53:34 15° E 10:56:30 10° ESE visible
29 Jan 2.9 12:28:10 10° NNE 12:33:18 87° WNW 12:38:24 10° SSW visible
29 Jan 4.4 14:08:26 10° NNW 14:11:38 17° NW 14:14:48 10° W visible
30 Jan 3.9 11:51:24 10° NNE 11:56:20 47° E 12:01:14 10° S visible
30 Jan 3.8 13:30:48 10° N 13:35:10 30° WNW 13:39:32 10° WSW visible
31 Jan 6.1 00:53:20 10° WSW 00:55:42 13° W 00:58:05 10° WNW visible
31 Jan 5.1 11:15:03 10° NE 11:19:11 24° E 11:23:17 10° SE visible
31 Jan 3.0 12:53:33 10° N 12:58:32 56° WNW 13:03:28 10° SW visible
01 Feb 5.9 10:39:48 10° ENE 10:41:48 12° E 10:43:47 10° ESE visible
01 Feb 3.1 12:16:35 10° NNE 12:21:42 77° ESE 12:26:47 10° S visible
01 Feb 4.2 13:56:33 10° N 14:00:10 20° WNW 14:03:49 10° WSW visible
02 Feb 4.3 11:39:55 10° NNE 11:44:41 38° E 11:49:24 10° SSE visible
02 Feb 3.5 13:19:03 10° N 13:23:40 36° WNW 13:28:15 10° SW visible
